Tracking 27112 objects as of 26-Mar-2023
HD Live streaming from Space Station
objects crossing your sky now

MORELOS 2

Track MORELOS 2 now!
MORELOS 2 is classified as:


NORAD ID: 16274
Int'l Code: 1985-109B
Perigee: 35,961.6 km
Apogee: 36,025.0 km
Inclination: 14.7 °
Period: 1,446.3 minutes
Semi major axis: 42364 km
RCS: 7.6304 m2 (large)
Launch date: November 27, 1985
Source: Mexico (MEX)
Launch site: AIR FORCE EASTERN TEST RANGE (AFETR)
Your satellite tracking list
Your tracking list is empty




NASA's NSSDC Master Catalog

Two Line Element Set (TLE):
1 16274U 85109B   23083.99354934  .00000037  00000-0  00000-0 0  9995
2 16274  14.7298   5.5801 0007487  96.8567 107.9094  0.99564135 34604
Source of the keplerian elements: AFSPC